Location: Igon
(43.1667°N, 0.2333°W)
Time: 00:32:44
(UTC+00:00)

ALOS - Visible Passes

Search period start: 12 April 2021 00:00
Search period end: 22 April 2021 00:00
Orbit: 683 x 684 km, 97.9° (Epoch: 11 April)

Date Brightness Start Highest point End Pass type
(mag) Time Alt. Az. Time Alt. Az. Time Alt. Az.
12 Apr 3.3 03:54:02 10° NNE 03:58:32 46° E 04:03:00 10° S visible
13 Apr 5.2 02:56:07 10° ENE 02:57:42 12° E 02:59:17 10° ESE visible
13 Apr 2.2 04:30:57 10° N 04:35:38 75° WNW 04:40:17 10° SSW visible
14 Apr 4.2 03:31:10 10° NE 03:35:08 27° E 03:39:05 10° SSE visible
15 Apr 2.7 04:07:43 10° NNE 04:12:22 64° E 04:16:59 10° S visible
16 Apr 4.9 03:08:44 10° NE 03:11:40 16° E 03:14:33 10° SE visible
16 Apr 2.5 04:44:50 10° N 04:49:23 54° WNW 04:53:56 10° SSW visible
17 Apr 3.7 03:44:40 10° NNE 03:49:01 37° E 03:53:20 10° SSE visible
18 Apr 2.3 04:21:28 10° NNE 04:26:09 89° E 04:30:49 10° SSW visible
19 Apr 4.6 03:21:56 10° NE 03:25:35 22° E 03:29:13 10° SE visible
20 Apr 3.1 03:58:17 10° NNE 04:02:52 52° E 04:07:23 10° S visible
21 Apr 5.1 02:59:51 10° ENE 03:02:04 13° E 03:04:16 10° ESE visible
21 Apr 2.3 04:35:17 10° N 04:39:56 67° WNW 04:44:33 10° SSW visible
